Regional Weather Roundup
Issued by NWS

Home | Current Version | Previous Version | Text Only | Print | Product List | Glossary Off
Versions: 1 2 3 4 5 6 7 8 9 10 11 12 13 14 15 16 17 18 19 20 21 22 23 24 25 26 27 28 29 30 31 32 33 34 35 36 37 38 39 40 41 42 43 44 45 46 47 48 49 50

000
ASUS43 KLOT 262221
RWRIL

ILLINOIS REGIONAL WEATHER ROUNDUP
NATIONAL WEATHER SERVICE CHICAGO/ROMEOVILLE IL
500 PM CDT THU MAR 26 2015

NOTE: "FAIR" INDICATES FEW OR NO CLOUDS BELOW 12,000 FEET WITH NO
SIGNIFICANT WEATHER AND/OR OBSTRUCTIONS TO VISIBILITY.

* THESE STATIONS ARE NOT UNDER NWS QUALITY CONTROL. THEY ALSO MAY NOT
  REPORT WEATHER SUCH AS PRECIPITATION OR FOG.

ILZ001-002-007-009-015-016-024-262300-
NORTHWEST ILLINOIS

CITY           SKY/WX    TMP DP  RH WIND       PRES   REMARKS
MOLINE         SUNNY     45  24  43 N18G29    30.02R
STERLING*      CLOUDY    43  25  49 NW14      30.01R
SAVANNA*       MOSUNNY   44  21  39 NW15      30.02R
$$

ILZ003-004-008-010-011-017-018-262300-
NORTH CENTRAL ILLINOIS

CITY           SKY/WX    TMP DP  RH WIND       PRES   REMARKS
ROCKFORD       CLOUDY    39  21  48 NW14      30.02R WCI  31
FREEPORT*      CLOUDY    37  22  56 N16       30.03S WCI  27
ROCHELLE*      CLOUDY    38  25  57 N13       30.01S WCI  31
DE KALB*       CLOUDY    36  22  57 NW10      30.01R WCI  28
PERU*          CLOUDY    44  26  49 N7        30.01S
$$

ILZ005-006-012>014-019>023-262300-
NORTHEAST ILLINOIS

CITY           SKY/WX    TMP DP  RH WIND       PRES   REMARKS
CHICAGO-OHARE  CLOUDY    38  23  55 NW14      29.99R WCI  30
CHICAGO-MIDWAY PTSUNNY   42  22  44 NW15      29.99R
AURORA         CLOUDY    40  24  53 NW14      30.01R
LANSING*       CLOUDY    41  20  42 N7        29.98R
JOLIET*        CLOUDY    41  24  49 NW9       30.01R
WAUKEGAN       CLOUDY    36  24  62 N13       29.99R WCI  27
DUPAGE AIRPORT CLOUDY    39  22  50 NW14      30.00R WCI  31
KANKAKEE*      MOSUNNY   43  30  60 NW15G22   29.99R
WHEELING       CLOUDY    39  22  50 NW13      30.01R WCI  31
MORRIS*        CLOUDY    41  25  53 NW9G16    30.01R
ROMEOVILLE*    CLOUDY    40  22  49 NW12      30.00R
NORTHERLY ISL    N/A     37  27  67 NE7         N/A  WCI  32
$$

LMZ740>746-262300-
SOUTHERN LAKE MICHIGAN

STATION/POSITION SKY/WX   TEMP    WIND        PRES    VSBY  WAVE
                          AIR SEA DIR/SP/G                  HT/PER
                          (F)     (DEG/KT/KT) (MB)    (MI)  (FT/S)
HARRISON CRIB              35      50/  6/  6   N/A
BURNHAM HARBOR             37      60/  6/ 10   N/A
CALUMET HARBOR             38      30/  7/  9 1013.8R
BURNS HARBOR               36      40/  5/  6 1015.6R
MICHIGAN CITY              36     320/  6/  6   N/A
$$

ILZ025>027-034>036-040-047-049-050-058-095>099-262300-
WEST-CENTRAL ILLINOIS

CITY           SKY/WX    TMP DP  RH WIND       PRES   REMARKS
QUINCY         SUNNY     48  23  37 NW14      30.04F
GALESBURG*     MOSUNNY   47  23  39 NW17      30.01S
MACOMB*        MOSUNNY   47  26  42 NW16G24   30.05S
JACKSONVILLE*  SUNNY     51  28  41 NW14      30.03S
PITTSFIELD*    SUNNY     49  28  44 NW13G21   30.05S
$$

ILZ028>032-037-038-041>044-048-051>054-059>061-262300-
CENTRAL ILLINOIS

CITY           SKY/WX    TMP DP  RH WIND       PRES   REMARKS
PONTIAC        PTSUNNY   45  29  54 NW17      30.00S
BLOOMINGTON    MOSUNNY   47  27  46 NW16      30.00S
DECATUR        MOSUNNY   49  28  44 N16G24    30.00S
PEORIA         SUNNY     49  22  34 N14G23    30.01S
LACON*         MOSUNNY   46  23  41 NW16      30.00S
LINCOLN*       SUNNY     49  25  39 NW12G23   30.00S
SPRINGFIELD    SUNNY     50  27  40 NW14      30.02S
TAYLORVILLE    SUNNY     46  32  57 NW14      30.01S
$$

ILZ033-039-045-046-055>057-062-063-262300-
EAST-CENTRAL ILLINOIS

CITY           SKY/WX    TMP DP  RH WIND       PRES   REMARKS
CHAMPAIGN      MOSUNNY   46  29  51 NW17      29.98S
DANVILLE*      MOSUNNY   44  31  60 NW16G23   29.95S
RANTOUL*       MOSUNNY   47  30  52 NW16G22   29.98R
MATTOON        MOSUNNY   46  32  58 NW17      29.98S
PARIS*         MOSUNNY   47  34  61 NW12      29.99S
$$

ILZ079-100>102-262300-
SOUTHWEST ILLINOIS

CITY           SKY/WX    TMP DP  RH WIND       PRES   REMARKS
BELLEVILLE     SUNNY     50  29  44 NW13G22   30.02S
CAHOKIA*       SUNNY     50  29  44 NW15G22   30.04F
SPARTA*        SUNNY     47  32  56 NW9       30.04S
$$

ILZ064>066-069>071-074>076-080>082-084>086-088>090-092>094-262300-
SOUTH-CENTRAL ILLINOIS

CITY           SKY/WX    TMP DP  RH WIND       PRES   REMARKS
CARBONDALE     MOSUNNY   46  34  62 NW12      30.02F
CAIRO*         CLOUDY    44  36  72 NW10      30.02S
EFFINGHAM*     SUNNY     47  31  53 W14G22    30.01S
MARION         MOSUNNY   46  36  66 N17       30.02F
MT. VERNON     MOSUNNY   46  30  53 NW6       30.02S
CENTRALIA*     MOSUNNY   46  32  56 N14G21    30.01F
SALEM*         SUNNY     49  33  54 N12       30.01F
METROPOLIS*    PTSUNNY   46  38  74 NW10      30.01R
$$

ILZ067-068-072-073-078-083-087-091-262300-
SOUTHEAST ILLINOIS

CITY           SKY/WX    TMP DP  RH WIND       PRES   REMARKS
LAWRENCEVILLE  CLOUDY    46  33  60 NW13      29.99F
FLORA*         CLOUDY    46  34  62 NW12      30.01S
FAIRFIELD*     PTSUNNY   46  34  63 NW9       30.00S
HARRISBURG*    CLOUDY    45  35  69 NW10G16   30.02F
ROBINSON*      CLOUDY    44  35  68 NW13      30.00F
CARMI*         CLOUDY   N/A N/A N/A NW12      30.00F
$$

ABBREVIATIONS USED IN REMARKS
   TC - TEMPERATURE IN CELSIUS
  WCI - WIND CHILL INDEX
   HX - HEAT INDEX
  VSB - VISIBILITY
$$



USA.gov is the U.S. government's official web portal to all federal, state and local government web resources and services.